TimePST,TemperatureF,Dew PointF,Humidity,Sea Level PressureIn,VisibilityMPH,Wind Direction,Wind SpeedMPH,Gust SpeedMPH,PrecipitationIn,Events,Conditions,WindDirDegrees,DateUTC
12:20 AM,23.0,21.2,93,29.87,9.0,WNW,3.5,-,N/A,,Overcast,290,2013-01-10 08:20:00
12:49 AM,23.0,21.2,93,29.87,1.8,Variable,4.6,-,N/A,,Overcast,0,2013-01-10 08:49:00
12:52 AM,23.0,21.9,96,29.91,1.8,West,4.6,-,N/A,,Overcast,270,2013-01-10 08:52:00
12:59 AM,23.0,21.2,93,29.87,3.0,West,4.6,-,N/A,,Overcast,280,2013-01-10 08:59:00
1:05 AM,23.0,21.2,93,29.87,1.8,Calm,Calm,-,N/A,,Overcast,0,2013-01-10 09:05:00
1:16 AM,23.0,21.2,93,29.88,3.0,Variable,4.6,-,N/A,,Overcast,0,2013-01-10 09:16:00
1:32 AM,23.0,21.2,93,29.88,10.0,Calm,Calm,-,N/A,,Overcast,0,2013-01-10 09:32:00
1:52 AM,23.0,21.0,92,29.92,10.0,WSW,4.6,-,N/A,,Overcast,250,2013-01-10 09:52:00
2:37 AM,23.0,21.2,93,29.89,10.0,West,3.5,-,N/A,,Overcast,280,2013-01-10 10:37:00
2:52 AM,21.9,21.0,96,29.93,10.0,WSW,3.5,-,N/A,,Overcast,240,2013-01-10 10:52:00
3:30 AM,21.2,21.2,100,29.89,10.0,West,3.5,-,N/A,,Overcast,260,2013-01-10 11:30:00
3:36 AM,21.2,21.2,100,29.89,10.0,Calm,Calm,-,N/A,,Overcast,0,2013-01-10 11:36:00
3:52 AM,21.9,21.0,96,29.94,10.0,SSW,3.5,-,N/A,,Overcast,200,2013-01-10 11:52:00
4:09 AM,21.2,21.2,100,29.88,9.0,WSW,3.5,-,N/A,,Overcast,250,2013-01-10 12:09:00
4:24 AM,21.2,21.2,100,29.88,1.5,Calm,Calm,-,N/A,,Overcast,0,2013-01-10 12:24:00
4:33 AM,21.2,21.2,100,29.88,3.0,Calm,Calm,-,N/A,,Overcast,0,2013-01-10 12:33:00
4:52 AM,21.0,19.0,92,29.95,10.0,Calm,Calm,-,N/A,,Overcast,0,2013-01-10 12:52:00
5:40 AM,19.4,17.6,93,29.88,10.0,Calm,Calm,-,N/A,,Mostly Cloudy,0,2013-01-10 13:40:00
5:50 AM,19.4,17.6,93,29.89,10.0,Calm,Calm,-,N/A,,Partly Cloudy,0,2013-01-10 13:50:00
5:52 AM,21.0,18.0,88,29.97,10.0,Calm,Calm,-,N/A,,Partly Cloudy,0,2013-01-10 13:52:00
6:01 AM,19.4,17.6,93,29.89,10.0,Calm,Calm,-,N/A,,Mostly Cloudy,0,2013-01-10 14:01:00
6:10 AM,19.4,17.6,93,29.89,10.0,Calm,Calm,-,N/A,,Mostly Cloudy,0,2013-01-10 14:10:00
6:52 AM,21.0,19.9,96,29.99,9.0,Calm,Calm,-,N/A,,Overcast,0,2013-01-10 14:52:00
7:04 AM,21.2,19.4,93,29.90,2.5,Calm,Calm,-,N/A,,Overcast,0,2013-01-10 15:04:00
7:11 AM,21.2,19.4,93,29.90,9.0,Calm,Calm,-,N/A,,Overcast,0,2013-01-10 15:11:00
7:29 AM,21.2,19.4,93,29.90,10.0,Calm,Calm,-,N/A,,Overcast,0,2013-01-10 15:29:00
7:52 AM,19.9,17.1,89,30.00,10.0,Calm,Calm,-,N/A,,Mostly Cloudy,0,2013-01-10 15:52:00
8:03 AM,19.4,17.6,93,29.91,10.0,Calm,Calm,-,N/A,,Partly Cloudy,0,2013-01-10 16:03:00
8:13 AM,19.4,19.4,100,29.91,1.0,Calm,Calm,-,N/A,,Scattered Clouds,0,2013-01-10 16:13:00
8:20 AM,21.2,19.4,93,29.92,0.5,Calm,Calm,-,N/A,Fog,Light Freezing Fog,0,2013-01-10 16:20:00
8:24 AM,21.2,17.6,86,29.92,2.5,Calm,Calm,-,N/A,,Scattered Clouds,0,2013-01-10 16:24:00
8:29 AM,21.2,19.4,93,29.92,10.0,Calm,Calm,-,N/A,,Mostly Cloudy,0,2013-01-10 16:29:00
8:52 AM,21.9,18.0,85,30.02,10.0,Calm,Calm,-,N/A,,Mostly Cloudy,0,2013-01-10 16:52:00
9:01 AM,21.2,19.4,93,29.93,10.0,Calm,Calm,-,N/A,,Overcast,0,2013-01-10 17:01:00
9:23 AM,23.0,21.2,93,29.93,10.0,Calm,Calm,-,N/A,,Mostly Cloudy,0,2013-01-10 17:23:00
9:37 AM,21.2,19.4,93,29.93,10.0,Calm,Calm,-,N/A,,Mostly Cloudy,0,2013-01-10 17:37:00
9:52 AM,21.9,19.0,89,30.06,10.0,Calm,Calm,-,N/A,,Overcast,0,2013-01-10 17:52:00
10:34 AM,21.2,17.6,86,29.93,10.0,WNW,5.8,-,N/A,,Mostly Cloudy,290,2013-01-10 18:34:00
10:52 AM,21.9,18.0,85,30.06,10.0,WNW,4.6,-,N/A,,Overcast,300,2013-01-10 18:52:00
11:52 AM,23.0,18.0,81,30.04,10.0,WNW,4.6,-,N/A,,Overcast,290,2013-01-10 19:52:00
12:24 PM,24.8,19.4,80,29.90,10.0,WNW,4.6,-,N/A,,Mostly Cloudy,300,2013-01-10 20:24:00
12:34 PM,24.8,19.4,80,29.90,10.0,West,5.8,-,N/A,,Mostly Cloudy,280,2013-01-10 20:34:00
12:52 PM,25.0,19.9,81,30.01,10.0,West,5.8,-,N/A,,Mostly Cloudy,270,2013-01-10 20:52:00
1:04 PM,24.8,19.4,80,29.89,10.0,West,3.5,-,N/A,,Mostly Cloudy,280,2013-01-10 21:04:00
1:16 PM,24.8,19.4,80,29.89,10.0,West,5.8,-,N/A,,Mostly Cloudy,280,2013-01-10 21:16:00
1:29 PM,24.8,19.4,80,29.90,10.0,West,6.9,-,N/A,,Mostly Cloudy,270,2013-01-10 21:29:00
1:36 PM,24.8,19.4,80,29.90,10.0,Variable,5.8,-,N/A,,Mostly Cloudy,0,2013-01-10 21:36:00
1:52 PM,25.0,21.0,85,30.01,10.0,West,8.1,-,N/A,,Overcast,270,2013-01-10 21:52:00
2:47 PM,24.8,19.4,80,29.91,4.0,NNW,6.9,-,0.00,Snow,Light Snow,340,2013-01-10 22:47:00
2:50 PM,24.8,19.4,80,29.91,1.0,North,8.1,-,0.00,Snow,Light Snow,360,2013-01-10 22:50:00
2:52 PM,23.0,19.0,85,30.04,0.5,North,4.6,-,0.00,Fog-Snow,Snow,350,2013-01-10 22:52:00
3:11 PM,23.0,19.4,86,29.91,0.2,NNW,6.9,-,0.07,Fog-Snow,Snow,340,2013-01-10 23:11:00
3:21 PM,23.0,21.2,93,29.91,0.5,WNW,5.8,-,0.09,Fog-Snow,Snow,300,2013-01-10 23:21:00
3:37 PM,23.0,19.4,86,29.91,1.5,NNW,5.8,-,0.10,Snow,Light Snow,340,2013-01-10 23:37:00
3:41 PM,23.0,19.4,86,29.91,3.0,NNW,5.8,-,0.10,Snow,Light Snow,330,2013-01-10 23:41:00
3:52 PM,23.0,21.0,92,30.05,10.0,WNW,4.6,-,0.10,,Overcast,300,2013-01-10 23:52:00
4:09 PM,24.8,21.2,86,29.92,10.0,WNW,4.6,-,N/A,,Overcast,290,2013-01-11 00:09:00
4:28 PM,23.0,19.4,86,29.92,10.0,NW,4.6,-,N/A,,Scattered Clouds,320,2013-01-11 00:28:00
4:52 PM,21.9,18.0,85,30.06,10.0,NW,5.8,-,N/A,,Clear,320,2013-01-11 00:52:00
5:47 PM,21.2,19.4,93,29.93,10.0,NW,6.9,-,N/A,,Mostly Cloudy,320,2013-01-11 01:47:00
5:52 PM,23.0,19.9,88,30.07,10.0,NW,5.8,-,N/A,,Mostly Cloudy,320,2013-01-11 01:52:00
6:20 PM,23.0,21.2,93,29.94,10.0,NW,6.9,-,N/A,,Overcast,320,2013-01-11 02:20:00
6:29 PM,23.0,21.2,93,29.94,10.0,WNW,5.8,-,N/A,,Overcast,290,2013-01-11 02:29:00
6:49 PM,21.2,21.2,100,29.94,10.0,West,5.8,-,N/A,,Mostly Cloudy,280,2013-01-11 02:49:00
6:52 PM,23.0,21.9,96,30.08,6.0,WNW,5.8,-,N/A,,Mostly Cloudy,300,2013-01-11 02:52:00
6:58 PM,23.0,21.2,93,29.94,1.8,NW,8.1,-,N/A,,Mostly Cloudy,310,2013-01-11 02:58:00
7:07 PM,21.2,21.2,100,29.94,3.0,NW,9.2,-,N/A,,Overcast,310,2013-01-11 03:07:00
7:16 PM,23.0,21.2,93,29.95,1.8,NW,11.5,17.3,N/A,,Overcast,310,2013-01-11 03:16:00
7:23 PM,21.2,21.2,100,29.95,4.0,NW,13.8,18.4,N/A,,Mostly Cloudy,320,2013-01-11 03:23:00
7:32 PM,21.2,21.2,100,29.95,10.0,WNW,10.4,-,N/A,,Overcast,300,2013-01-11 03:32:00
7:52 PM,21.9,19.9,92,30.10,10.0,NNW,8.1,-,N/A,,Mostly Cloudy,330,2013-01-11 03:52:00
8:17 PM,21.2,19.4,93,29.96,10.0,North,5.8,-,N/A,,Scattered Clouds,360,2013-01-11 04:17:00
8:52 PM,21.0,19.0,92,30.09,10.0,Calm,Calm,-,N/A,,Clear,0,2013-01-11 04:52:00
9:23 PM,21.2,19.4,93,29.96,10.0,Calm,Calm,-,N/A,,Partly Cloudy,0,2013-01-11 05:23:00
9:52 PM,21.0,19.0,92,30.11,10.0,NW,4.6,-,N/A,,Partly Cloudy,320,2013-01-11 05:52:00
10:52 PM,21.0,19.0,92,30.12,10.0,Calm,Calm,-,N/A,,Clear,0,2013-01-11 06:52:00
11:52 PM,19.9,17.1,89,30.12,10.0,Calm,Calm,-,N/A,,Clear,0,2013-01-11 07:52:00